Location: Fredericksburg
(30.2750°N, 98.8720°W)
Time: 05:40:44
(UTC-05:00)

PCSat - Visible Passes

Search period start: 24 July 2014 00:00
Search period end: 03 August 2014 00:00
Orbit: 786 x 796 km, 67.1° (Epoch: 23 July)

Date Brightness Start Highest point End Pass type
(mag) Time Alt. Az. Time Alt. Az. Time Alt. Az.
24 Jul 11.3 02:53:32 28° N 02:53:32 28° N 02:56:07 10° NNE visible
25 Jul 11.7 02:23:44 23° NNE 02:23:44 23° NNE 02:25:38 10° NNE visible
25 Jul 12.0 04:04:27 11° NW 04:04:27 11° NW 04:05:18 10° NW visible
26 Jul 12.0 01:53:53 17° NE 01:53:53 17° NE 01:55:01 10° NNE visible
26 Jul 11.9 03:34:37 14° NW 03:34:37 14° NW 03:36:32 10° NNW visible
27 Jul 12.3 01:24:01 11° NE 01:24:01 11° NE 01:24:17 10° NE visible
27 Jul 11.8 03:04:44 17° NNW 03:04:44 17° NNW 03:06:47 10° N visible
28 Jul 11.8 02:34:49 19° NNW 02:34:49 19° NNW 02:36:45 10° N visible
29 Jul 11.9 02:04:52 19° N 02:04:52 19° N 02:06:32 10° N visible
30 Jul 12.0 01:34:53 18° NNE 01:34:53 18° NNE 01:36:11 10° NNE visible
31 Jul 12.1 01:04:51 15° NNE 01:04:51 15° NNE 01:05:44 10° NNE visible
01 Aug 12.2 00:34:46 12° NNE 00:34:46 12° NNE 00:35:09 10° NNE visible
01 Aug 12.3 02:15:29 12° NNW 02:15:29 12° NNW 02:16:18 10° NNW visible
02 Aug 12.2 01:45:20 15° NNW 01:45:20 15° NNW 01:46:42 10° N visible
